FW7504 Weather Reports


time (UTC)temp
F
wind
direction
speed
knots
gust
knots
rain 1hr
in
rain 24hr
in
rain mn
in
humidity
%
barometer
mb
20260504235051 73 0 0.9 2.6 0.00 0.00 0.00 44 1014.0
20260504234558 73 0 0.0 4.3 0.00 0.00 0.00 43 1013.8
20260504234052 73 0 0.9 4.3 0.00 0.00 0.00 44 1013.9
20260504233551 74 360 0.9 7.0 0.00 0.00 0.00 44 1013.8
20260504233058 74 360 1.7 7.0 0.00 0.00 0.00 44 1013.9
20260504232552 74 360 1.7 7.0 0.00 0.00 0.00 44 1013.9
20260504232052 74 360 0.9 4.3 0.00 0.00 0.00 45 1013.9
20260504231555 74 360 1.7 4.3 0.00 0.00 0.00 45 1014.0
20260504231051 75 360 0.9 3.5 0.00 0.00 0.00 45 1014.1
20260504230555 75 360 0.9 3.5 0.00 0.00 0.00 44 1013.9
20260504230106 75 360 0.9 5.2 0.00 0.00 0.00 45 1014.0
20260504225553 75 360 0.9 5.2 0.00 0.00 0.00 45 1014.0
20260504225052 75 360 1.7 4.3 0.00 0.00 0.00 44 1014.1
20260504224600 75 0 1.7 4.3 0.00 0.00 0.00 45 1013.9
20260504224056 76 360 1.7 4.3 0.00 0.00 0.00 45 1014.0
20260504223554 76 360 0.9 3.5 0.00 0.00 0.00 47 1013.9
20260504223125 76 0 0.9 4.3 0.00 0.00 0.00 45 1014.0
20260504222552 76 360 0.9 5.2 0.00 0.00 0.00 47 1013.9
20260504222049 76 360 2.6 5.2 0.00 0.00 0.00 46 1014.0
20260504221555 77 360 2.6 5.2 0.00 0.00 0.00 45 1013.9
20260504221052 77 360 0.9 3.5 0.00 0.00 0.00 47 1013.9
20260504220552 77 360 1.7 3.5 0.00 0.00 0.00 48 1013.9
20260504215552 77 360 1.7 4.3 0.00 0.00 0.00 46 1013.8
20260504215051 77 360 1.7 4.3 0.00 0.00 0.00 48 1013.7
20260504214559 77 360 0.9 3.5 0.00 0.00 0.00 49 1013.8
20260504214052 77 360 0.9 3.5 0.00 0.00 0.00 48 1013.8
20260504213552 78 0 1.7 3.5 0.00 0.00 0.00 50 1013.7
20260504213105 77 360 0.0 2.6 0.00 0.00 0.00 51 1013.8
20260504212552 77 0 0.0 3.5 0.00 0.00 0.00 48 1013.9
20260504212052 77 360 0.9 3.5 0.00 0.00 0.00 49 1013.9
20260504211653 77 0 0.0 5.2 0.00 0.00 0.00 50 1013.9
20260504211052 77 360 0.9 5.2 0.00 0.00 0.00 50 1014.0
20260504210554 77 360 1.7 4.3 0.00 0.00 0.00 49 1014.1
20260504205554 77 0 0.9 3.5 0.00 0.00 0.00 49 1014.1
20260504205048 77 360 1.7 3.5 0.00 0.00 0.00 51 1014.1
20260504204601 77 360 0.9 3.5 0.00 0.00 0.00 49 1014.1
20260504204053 77 360 0.9 3.5 0.00 0.00 0.00 48 1014.1
20260504203552 77 360 0.9 3.5 0.00 0.00 0.00 50 1014.2
20260504203052 77 360 0.9 3.5 0.00 0.00 0.00 50 1014.1
20260504202547 77 360 1.7 3.5 0.00 0.00 0.00 49 1014.5
20260504202054 77 360 0.9 4.3 0.00 0.00 0.00 48 1014.3
20260504201608 77 360 0.9 4.3 0.00 0.00 0.00 48 1014.2
20260504201048 77 360 2.6 5.2 0.00 0.00 0.00 47 1014.3
20260504200551 77 360 1.7 5.2 0.00 0.00 0.00 47 1014.5
20260504200055 77 360 0.0 3.5 0.00 0.00 0.00 50 1014.6
20260504195552 77 0 0.9 3.5 0.00 0.00 0.00 48 1014.6
20260504195052 77 360 1.7 3.5 0.00 0.00 0.00 48 1014.8
20260504194557 77 360 1.7 3.5 0.00 0.00 0.00 48 1014.8
20260504194052 76 360 0.9 3.5 0.00 0.00 0.00 48 1014.8
20260504193553 76 360 0.9 3.5 0.00 0.00 0.00 49 1015.0
20260504193056 76 360 0.9 3.5 0.00 0.00 0.00 48 1015.0
20260504192552 76 360 0.9 5.2 0.00 0.00 0.00 49 1015.1
20260504192051 76 360 0.9 5.2 0.00 0.00 0.00 49 1015.2
20260504191608 76 360 1.7 4.3 0.00 0.00 0.00 49 1015.4
20260504191051 76 360 1.7 3.5 0.00 0.00 0.00 49 1015.4
20260504190551 76 360 0.0 4.3 0.00 0.00 0.00 51 1015.5
20260504190108 76 0 0.0 4.3 0.00 0.00 0.00 52 1015.6
20260504185551 75 360 1.7 4.3 0.00 0.00 0.00 50 1015.7
20260504185051 75 360 0.0 4.3 0.00 0.00 0.00 49 1015.7
20260504184554 75 360 0.0 4.3 0.00 0.00 0.00 50 1015.8
20260504184049 75 360 1.7 3.5 0.00 0.00 0.00 49 1015.7
20260504183555 75 0 0.9 2.6 0.00 0.00 0.00 49 1015.8
20260504183052 75 0 0.9 2.6 0.00 0.00 0.00 50 1015.8
20260504182551 75 360 0.9 5.2 0.00 0.00 0.00 51 1015.9
20260504182051 75 360 1.7 5.2 0.00 0.00 0.00 50 1015.9
20260504181601 75 360 2.6 5.2 0.00 0.00 0.00 49 1016.0
20260504181055 75 0 1.7 4.3 0.00 0.00 0.00 50 1016.0
20260504180555 75 360 0.9 5.2 0.00 0.00 0.00 50 1016.1
20260504180055 75 0 2.6 7.0 0.00 0.00 0.00 50 1016.2
20260504175554 75 360 1.7 7.0 0.00 0.00 0.00 49 1016.3
20260504175053 75 360 2.6 7.0 0.00 0.00 0.00 48 1016.4
20260504174552 75 360 1.7 7.0 0.00 0.00 0.00 51 1016.4
20260504174053 75 360 2.6 5.2 0.00 0.00 0.00 48 1016.4
20260504173556 74 360 1.7 5.2 0.00 0.00 0.00 52 1016.5
20260504173055 74 360 0.9 5.2 0.00 0.00 0.00 53 1016.6
20260504172553 74 0 2.6 5.2 0.00 0.00 0.00 51 1016.7
20260504172054 73 360 0.9 4.3 0.00 0.00 0.00 54 1016.8
20260504171556 73 360 1.7 4.3 0.00 0.00 0.00 53 1016.9
20260504171054 73 360 1.7 4.3 0.00 0.00 0.00 53 1017.0
20260504170557 73 360 1.7 7.0 0.00 0.00 0.00 52 1017.0
20260504151057 67 0 0.9 3.5 0.00 0.00 0.00 58 1018.3
20260504150554 67 360 0.0 1.7 0.00 0.00 0.00 59 1018.3
20260504150121 66 0 0.0 2.6 0.00 0.00 0.00 59 1018.5
20260504141053 61 360 0.0 1.7 0.00 0.00 0.00 63 1018.7
20260504140553 61 0 0.0 1.7 0.00 0.00 0.00 65 1018.7
20260504130553 52 0 0.0 1.7 0.00 0.00 0.00 78 1018.9
20260504110553 44 0 0.0 0.0 0.00 0.00 0.00 87 1018.3
20260504100554 45 0 0.0 0.0 0.00 0.00 0.00 84 1018.2
20260504081554 47 0 0.0 0.0 0.00 0.00 0.00 82 1018.1
20260504081053 47 0 0.0 0.0 0.00 0.00 0.00 82 1018.0
20260504080552 47 0 0.0 0.0 0.00 0.00 0.00 81 1017.8
20260504060103 51 0 0.0 0.0 0.00 0.00 0.00 74 1018.6
20260504050553 53 0 0.0 0.0 0.00 0.00 0.00 70 1018.8
20260504050111 53 0 0.0 0.0 0.00 0.00 0.00 70 1018.9
20260504045553 53 0 0.0 0.0 0.00 0.00 0.00 70 1018.9
20260504045053 53 0 0.0 0.0 0.00 0.00 0.00 71 1018.8
20260504044555 53 0 0.0 0.0 0.00 0.00 0.00 70 1018.9
20260504044053 54 0 0.0 0.0 0.00 0.00 0.00 70 1019.0
20260504043553 54 0 0.0 0.0 0.00 0.00 0.00 69 1019.0
20260504043100 54 0 0.0 0.0 0.00 0.00 0.00 68 1018.9
20260504042553 54 0 0.0 0.0 0.00 0.00 0.00 69 1018.9
20260504042052 54 0 0.0 0.0 0.00 0.00 0.00 68 1018.9
20260504041555 54 0 0.0 0.0 0.00 0.00 0.00 68 1019.0
20260504041052 54 0 0.0 0.0 0.00 0.00 0.00 68 1019.0
20260504040552 55 0 0.0 0.0 0.00 0.00 0.00 68 1018.9
20260504040142 55 0 0.0 0.0 0.00 0.00 0.00 68 1018.9
20260504035553 55 0 0.0 0.0 0.00 0.00 0.00 67 1019.0
20260504035056 55 0 0.0 0.9 0.00 0.00 0.00 67 1018.9
20260504034556 55 0 0.0 1.7 0.00 0.00 0.00 67 1019.0
20260504034052 55 360 0.0 1.7 0.00 0.00 0.00 67 1018.8
20260504033553 56 360 0.0 1.7 0.00 0.00 0.00 67 1018.8
20260504033056 56 0 0.0 1.7 0.00 0.00 0.00 66 1018.8
20260504032553 56 0 0.0 0.0 0.00 0.00 0.00 66 1018.8
20260504032055 56 0 0.0 0.0 0.00 0.00 0.00 65 1018.9
20260504031601 56 0 0.0 0.9 0.00 0.00 0.00 65 1018.9
20260504031052 56 0 0.0 0.9 0.00 0.00 0.00 65 1018.8
20260504030552 56 0 0.0 0.0 0.00 0.00 0.00 64 1018.8
20260504030053 57 0 0.0 0.0 0.00 0.00 0.00 64 1018.7
20260504025554 57 0 0.0 0.0 0.00 0.00 0.00 64 1018.5
20260504025057 57 0 0.0 0.0 0.00 0.00 0.00 64 1018.5
20260504024553 57 0 0.0 0.0 0.00 0.00 0.00 64 1018.5
20260504024052 57 0 0.0 0.0 0.00 0.00 0.00 63 1018.4
20260504023553 58 0 0.0 0.0 0.00 0.00 0.00 63 1018.5
20260504023053 58 0 0.0 0.0 0.00 0.00 0.00 63 1018.4
20260504022553 58 0 0.0 0.0 0.00 0.00 0.00 63 1018.5
20260504022053 58 0 0.0 0.0 0.00 0.00 0.00 62 1018.4
20260504021558 58 0 0.0 0.0 0.00 0.00 0.00 62 1018.4
20260504021052 59 0 0.0 0.0 0.00 0.00 0.00 61 1018.4
20260504020552 59 0 0.0 0.0 0.00 0.00 0.00 61 1018.4
20260504020110 59 0 0.0 0.0 0.00 0.00 0.00 60 1018.3
20260504015557 59 0 0.0 0.0 0.00 0.00 0.00 60 1018.2
20260504015054 59 0 0.0 0.0 0.00 0.00 0.00 59 1018.2
20260504014557 60 0 0.0 0.0 0.00 0.00 0.00 60 1018.2
20260504014052 60 0 0.0 0.0 0.00 0.00 0.00 59 1018.2
20260504013552 60 0 0.0 0.0 0.00 0.00 0.00 59 1018.2
20260504013056 60 0 0.0 1.7 0.00 0.00 0.00 58 1018.0
20260504012554 60 0 0.0 1.7 0.00 0.00 0.00 58 1018.0
20260504012052 60 0 0.0 0.9 0.00 0.00 0.00 58 1017.9
20260504011553 61 0 0.0 0.0 0.00 0.00 0.00 58 1017.9
20260504011053 61 0 0.0 0.0 0.00 0.00 0.00 59 1017.9
20260504010554 61 0 0.0 0.0 0.00 0.00 0.00 57 1017.8
20260504010058 62 0 0.0 0.0 0.00 0.00 0.00 56 1017.9
20260504005553 62 0 0.0 0.0 0.00 0.00 0.00 56 1017.7
20260504005053 63 0 0.0 0.0 0.00 0.00 0.00 54 1017.8
20260504004554 63 0 0.0 0.0 0.00 0.00 0.00 55 1017.8
20260504004053 63 0 0.0 0.0 0.00 0.00 0.00 54 1017.8
20260504003552 64 0 0.0 0.0 0.00 0.00 0.00 53 1017.7
20260504003053 64 0 0.0 0.0 0.00 0.00 0.00 51 1017.6
20260504002552 64 0 0.0 0.0 0.00 0.00 0.00 51 1017.7
20260504002052 64 0 0.0 0.9 0.00 0.00 0.00 50 1017.8
20260504001555 65 0 0.0 1.7 0.00 0.00 0.00 51 1017.7
20260504001055 65 0 0.0 1.7 0.00 0.00 0.00 51 1017.6
20260504000551 65 0 0.0 1.7 0.00 0.00 0.00 50 1017.7
20260504000056 65 0 0.0 1.7 0.00 0.00 0.00 49 1017.8
20260503235552 66 0 0.0 2.6 0.00 0.00 0.00 48 1017.7